Regional Weather Roundup
Issued by NWS Jackson, KY

Home | Current Version | Previous Version | Graphics & Text | Print | Product List | Glossary On
Versions: 1 2 3 4 5 6 7 8 9 10 11 12 13 14 15 16 17 18 19 20 21 22 23 24 25 26 27 28 29 30 31 32 33 34 35 36 37 38 39 40 41 42 43 44 45 46 47 48 49 50
000
ASUS43 KJKL 221510
RWRJKL

EAST KENTUCKY HOURLY WEATHER ROUNDUP
NATIONAL WEATHER SERVICE JACKSON KY
1000 AM EST THU FEB 22 2018

NOTE: "FAIR" INDICATES FEW OR NO CLOUDS BELOW 12,000 FEET WITH
NO SIGNIFICANT WEATHER AND/OR OBSTRUCTIONS TO VISIBILITY.

* THESE REPORTS ARE NOT UNDER NWS QUALITY CONTROL AND MAY NOT
  REPORT WEATHER SUCH AS PRECIPITATION AND FOG.

KYZ079-080-083-085-087-088-110-112-115-119-120-221600
...EASTERN KENTUCKY...

CITY           SKY/WX    TMP DP  RH WIND       PRES   REMARKS
JACKSON        CLOUDY    51  51 100 VRB3      30.34F FOG
LONDON         PTSUNNY   64  61  90 S7        30.33F
SOMERSET*      LGT RAIN  55  55 100 N3        30.35R
WILLIAMSBURG*    N/A     66  64  94 S8        30.35R
MIDDLESBORO*   PTSUNNY   71  61  70 S8G16     30.37F
HARLAN APT*    CLOUDY    68  59  73 CALM      30.38R
PIKE CO APT*   CLOUDY    56  56 100 NW15      30.36R
BIG SANDY APT* FOG       49  49 100 CALM      30.36R VSB<1/4
MOREHEAD APT*  CLOUDY    45  43  93 NE6       30.38R
ASHLAND*       LGT RAIN  43  41  93 CALM      30.39S
$$

KYZ035-036-041-042-044-050-067-078-099-221600
...CENTRAL KENTUCKY...

CITY           SKY/WX    TMP DP  RH WIND       PRES   REMARKS
MT STERLING*   CLOUDY    45  43  93 CALM      30.39R
FLEMING/MASON* CLOUDY    42  42  99 E7        30.41R
DANVILLE*      CLOUDY    46  46 100 CALM      30.37S
LEXINGTON      CLOUDY    46  42  86 NE5       30.37R
FRANKFORT      LGT RAIN  44  40  85 N7        30.38R FOG
LOUISVILLE     LGT RAIN  44  41  89 N9        30.41R FOG
LEBANON*         N/A     48  46  93 CALM      30.36R FOG
GLASGOW*       CLOUDY   N/A N/A N/A SE3       30.36R
BOWLING GREEN  CLOUDY    52  51  97 S3        30.36R
$$

KYZ091>093-OHZ055-061-077-WVZ005-015-034-035-042-221600
...SOUTHERN OHIO/WEST VIRGINIA...

CITY           SKY/WX    TMP DP  RH WIND       PRES   REMARKS
COVINGTON      CLOUDY    42  41  96 NE9       30.44R FOG
COLUMBUS       PTSUNNY   40  37  89 E20G35    30.35F WCI  30
DAYTON         CLOUDY    37  36  96 N13       30.50R WCI  29
WILMINGTON     CLOUDY    39  38  96 E12G22    30.43R WCI  32
HUNTINGTON     CLOUDY    44  42  93 NE3       30.37F FOG
CHARLESTON     FOG       48  48 100 CALM      30.33F VSB 1/2
BECKLEY          N/A     69  54  58 SW16G24   30.39R
BLUEFIELD        N/A     68  52  56 W16G26    30.43R
LOGAN CO APT*  PTSUNNY   64  57  77 VRB7G13   30.33R
$$

VAZ002-007-008-TNZ017-027-036-066-071-221600
...SOUTHWEST VIRGINIA/EAST TENNESSEE...

CITY           SKY/WX    TMP DP  RH WIND       PRES   REMARKS
WISE*          CLOUDY    64  57  77 SW17G28   30.44R
JONESVILLE*      N/A     70  59  68 SW14G22   30.41S
ABINGDON*      PTSUNNY   72  58  60 W12       30.43R
BRISTOL          N/A     73  59  61 SW8       30.41R
MORRISTOWN*    PTSUNNY   72  61  68 W13       30.40S
SEVIERVILLE*   PTSUNNY   77  57  50 W8G15     30.39S
KNOXVILLE      CLOUDY    70  62  76 SW9       30.39R
LAFOLLETTE*    PTSUNNY   70  61  73 S7        30.41R
OAK RIDGE      CLOUDY    70  64  81 VRB6      30.40R
CROSSVILLE     CLOUDY    64  57  78 S9        30.40R
NASHVILLE      CLOUDY    58  55  90 NW8       30.34R
$$

...KEY TO REMARKS...
VSB - VISIBILITY IN MILES
WCI - WIND CHILL INDEX
HX  - HEAT INDEX

$$



USA.gov is the U.S. government's official web portal to all federal, state and local government web resources and services.